Terug naar catalogus

STARLINK-31961

ActiefCommunicatieVLEO
NORAD 59894·PAYLOAD·🇺🇸 United States

Gelanceerd May 28, 2024 vanaf Cape Canaveral Space Force Station

Loading…

Volgende Passages (komende 24 uur)

TLE

VersSource: CelesTrak SupGP

Epoch: Sep 14, 2026, 15:13 UTC

1 59894C 24100K   26257.63451389  .00035440  00000+0  12834-2 0  2575
2 59894  43.0013 131.3448 0001129 260.5064 125.9442 15.27566904    11

Volg STARLINK-31961 in realtime met AllMySat

Download on the App Store